Simultaneous Nadir Overpasses (SNOs) Predictions

Prediction of SNOs between AQUA and NPP Satellite Orbit:

Table of predicted SNOs for the next 14.0 days since TLE Epoch: 3/11/2023
Index Date (AQUA) Time (AQUA) Lat,Lon (AQUA) SZA (AQUA ) Date (NPP) Time (NPP) Lat,Lon (NPP) SZA (NPP ) Distance(km) Time Diff (sec)
1 03/11/2023 14:12:41 -79.40, 43.88 83.57 03/11/2023 14:11:28 -79.40, 43.90 83.52 0.48 73
2 03/11/2023 15:01:59 79.64,-146.72 96.06 03/11/2023 15:02:05 79.64,-146.70 96.05 0.70 6
3 03/14/2023 05:37:46 79.65, -5.57 95.00 03/14/2023 05:37:34 79.66, -5.45 94.99 2.49 12
4 03/14/2023 06:27:07 -79.82, 163.37 85.28 03/14/2023 06:28:14 -79.82, 163.40 85.33 0.62 67
5 03/16/2023 20:13:34 79.54, 134.69 94.12 03/16/2023 20:13:07 79.53, 134.60 94.16 2.06 27
6 03/16/2023 21:02:51 -79.82, -55.53 86.33 03/16/2023 21:03:42 -79.83, -55.43 86.39 2.16 51
7 03/19/2023 10:49:16 79.53, -84.31 93.09 03/19/2023 10:48:35 79.52, -84.32 93.12 0.26 41
8 03/19/2023 11:38:36 -79.74, 84.93 87.26 03/19/2023 11:39:14 -79.73, 84.80 87.26 2.63 38
9 03/22/2023 01:24:56 79.54, 56.89 92.02 03/22/2023 01:24:03 79.54, 56.96 92.04 1.51 53
10 03/22/2023 02:14:17 -79.72,-134.14 88.28 03/22/2023 02:14:43 -79.72,-134.19 88.29 1.03 26
11 03/24/2023 16:00:37 79.42,-162.79 91.13 03/24/2023 15:59:35 79.42,-162.93 91.20 3.12 62



Historial Predications of SNOs between AQUA and NPP
